Wind_Speed
5 3 1 1 4 5 2 2 1 3 3 0 5 4 5 3 1 3 11 11 19 17 14 12 10 9 10 12 9 11 13 14 14 14 14 14 15 15 15 14 16 16 16 16 17 18 17 19 19
5 5 1 1 5 4 2 4 1 2 4 7 8 4 5 4 3 8 9 18 21 19 16 13 12 10 10 10 11 9 11 12 14 14 13 14 14 14 14 14 15 16 16 17 17 17 19 19 19
4 3 2 3 3 2 1 4 3 4 9 3 4 5 3 2 4 11 13 21 19 16 13 13 14 12 13 12 9 8 11 10 12 13 13 14 13 13 13 13 14 16 16 16 16 17 17 16 16
3 4 3 4 8 5 3 5 7 4 3 6 11 7 5 10 4 6 23 22 19 16 14 11 12 13 13 14 12 10 12 11 12 14 12 12 12 13 13 13 14 15 16 15 15 14 16 15 14
2 2 4 3 4 3 5 7 2 2 3 5 2 4 5 4 10 23 23 21 19 16 14 12 12 12 12 9 10 10 11 11 12 13 12 12 13 13 14 13 14 15 14 14 14 16 14 13 12
3 2 4 3 3 4 3 7 10 3 4 5 6 5 3 9 17 18 20 19 16 17 14 12 11 10 9 8 8 9 10 10 11 11 12 12 13 13 12 14 13 13 12 13 15 12 12 13 11
4 3 3 4 4 3 5 11 8 6 4 4 4 4 3 5 15 17 17 17 17 16 16 14 12 9 9 8 7 9 9 9 10 10 10 11 12 12 12 13 13 11 10 12 14 12 10 10 9
4 3 3 2 6 4 1 6 9 7 2 5 7 5 6 6 17 17 16 17 16 15 15 15 14 11 11 10 8 8 8 9 9 9 11 11 11 11 11 11 11 11 9 11 11 9 8 6 6
1 4 2 2 4 3 2 2 0 2 10 2 2 5 11 23 21 19 16 16 17 15 15 16 14 11 11 10 8 7 7 9 9 9 8 11 11 10 10 10 10 9 9 9 8 6 4 3 3
3 3 5 5 5 6 7 6 3 1 8 4 10 15 23 21 21 17 15 14 15 18 17 16 14 13 12 11 10 9 7 9 9 8 8 9 10 9 10 10 10 10 9 8 6 5 3 1 1
1 2 4 5 7 5 4 1 3 3 4 5 12 14 16 19 14 15 14 14 16 21 19 17 15 14 13 11 10 9 7 7 8 7 9 8 7 9 9 9 9 9 8 7 5 4 3 2 2
1 2 2 6 7 5 2 2 4 5 0 8 15 20 17 12 15 17 16 19 18 21 20 19 17 16 14 11 10 10 9 7 7 7 6 6 5 6 7 6 5 4 4 3 1 0 3 4 5
2 2 5 8 9 8 6 2 2 6 6 14 14 16 14 11 12 15 17 19 19 22 20 19 19 17 14 12 13 12 10 8 5 4 3 2 2 3 3 2 2 3 4 2 1 1 1 2 2
1 6 9 5 3 4 5 1 4 4 12 16 16 15 12 10 16 13 18 21 21 23 22 21 20 17 16 16 16 13 10 6 4 3 4 3 2 1 1 3 2 3 1 2 2 2 3 3 5
5 6 5 6 6 4 7 2 5 2 14 17 14 12 11 12 15 19 22 23 26 26 23 23 21 19 18 19 17 13 9 6 5 5 3 5 4 1 1 2 2 4 4 2 2 2 4 1 2
2 3 3 3 6 5 3 4 6 4 9 15 15 12 11 11 17 19 19 23 24 27 26 24 21 19 17 19 16 13 11 8 5 4 3 5 6 2 1 1 2 2 2 2 0 1 3 3 3
3 1 2 3 5 4 5 4 4 6 8 13 13 11 11 10 15 20 21 23 25 29 28 25 23 21 18 17 15 13 12 9 7 7 5 7 7 5 2 2 2 0 2 3 2 2 1 4 4
4 3 3 4 6 5 5 7 4 6 11 10 13 11 12 13 17 21 23 23 25 28 27 24 25 20 18 18 16 15 14 12 10 9 9 7 7 5 5 4 3 2 3 3 1 2 1 3 3
3 2 4 3 8 5 7 5 5 4 3 9 10 13 12 14 16 17 20 25 26 25 25 26 26 20 19 17 16 15 16 15 12 11 12 9 10 7 7 7 4 4 3 3 1 3 6 5 3
0 3 4 2 7 4 7 11 5 7 5 9 12 13 16 7 7 13 19 22 28 28 29 27 27 25 23 19 17 18 16 14 14 13 15 11 11 10 9 7 6 6 7 3 1 2 4 4 2
3 4 4 3 5 3 2 3 4 2 1 5 8 12 13 16 12 11 17 23 26 29 30 29 29 29 25 24 18 14 13 13 16 15 16 14 11 9 7 7 5 7 8 6 4 4 5 4 2
3 8 8 10 4 3 3 3 2 2 5 7 7 9 10 12 8 9 16 19 26 31 30 30 27 28 27 25 24 21 16 14 16 17 16 14 12 10 10 6 5 6 7 5 4 5 6 6 5
10 3 5 4 3 3 1 3 3 2 2 7 7 8 9 10 15 14 18 24 28 25 32 33 27 27 27 24 25 21 17 16 16 19 18 16 14 11 11 10 7 4 9 6 6 5 6 5 5
5 7 8 4 3 3 3 4 4 2 4 4 4 9 6 8 13 11 18 19 24 25 28 31 30 30 30 27 26 24 19 18 16 18 17 18 14 13 14 13 9 8 9 8 6 5 4 5 3
5 7 3 4 4 5 2 3 7 4 6 6 7 10 13 11 11 11 10 17 22 28 29 30 32 33 29 29 28 26 23 20 21 19 18 19 18 17 17 15 14 11 9 8 11 8 6 5 4
2 7 6 5 4 4 2 4 5 4 3 6 8 8 9 11 13 13 17 22 21 25 30 32 34 34 31 30 30 27 25 23 21 20 20 22 18 19 17 16 15 14 12 11 10 10 8 8 7
4 3 3 7 3 3 2 4 5 3 4 5 6 5 1 5 5 8 14 22 22 23 30 34 36 36 34 33 33 30 27 26 24 21 20 21 20 18 19 17 16 15 16 12 11 11 10 9 9
4 4 3 3 4 3 4 4 5 6 7 4 5 5 5 4 6 5 12 22 26 29 30 31 33 38 36 36 36 35 30 28 25 23 22 19 18 20 19 21 16 18 16 16 14 13 12 12 11
2 1 7 5 3 5 2 6 4 7 6 5 6 6 6 5 6 7 8 18 25 25 27 32 31 34 36 35 36 37 35 30 26 25 24 21 18 16 16 17 18 20 18 20 18 16 14 14 13
2 5 5 5 3 2 4 6 2 6 6 6 7 5 5 5 7 7 11 16 19 23 27 31 30 28 35 35 34 36 37 32 29 27 25 24 22 19 18 16 17 18 21 23 23 19 17 17 16
Wind_Direction
147 168 124 65 64 67 43 317 62 89 117 73 101 111 111 37 50 156 144 141 143 140 145 149 151 150 137 127 120 116 115 110 114 114 114 110 107 107 106 107 104 101 99 99 98 99 98 100 103
159 163 228 72 77 52 337 337 109 155 120 120 93 98 50 69 67 116 126 143 144 140 141 139 136 144 140 138 120 125 122 119 113 111 109 106 109 112 110 108 110 106 105 100 102 101 101 102 104
132 171 72 77 84 74 98 344 41 93 144 137 107 60 69 48 90 142 148 148 144 139 139 139 131 134 133 118 120 132 121 119 112 107 103 109 109 110 112 107 105 104 103 105 105 105 103 102 101
155 20 32 65 93 21 355 43 82 147 163 63 111 76 75 105 147 163 149 151 144 139 139 137 126 121 121 128 134 125 113 120 109 104 103 107 110 111 111 111 110 108 106 106 105 103 100 94 91
80 73 63 73 54 9 350 40 176 267 58 77 88 113 78 43 122 145 149 153 148 143 139 136 130 124 127 112 116 115 115 108 110 104 109 112 109 104 104 106 103 104 107 109 101 107 93 88 83
49 87 71 79 74 358 9 350 336 71 55 111 75 76 65 125 131 145 150 152 150 146 144 138 134 132 128 121 113 109 111 110 108 104 106 106 105 100 99 100 98 97 101 108 110 105 96 89 84
108 73 103 140 124 67 331 347 324 105 114 86 97 77 108 102 140 152 154 155 154 154 151 148 143 140 137 125 123 108 113 112 112 108 107 102 109 101 95 96 94 98 103 116 116 109 103 94 85
115 96 121 169 175 128 285 317 306 111 85 105 143 160 172 170 151 151 154 155 158 160 161 154 149 156 143 133 116 115 114 119 120 116 110 101 102 96 93 101 104 101 111 120 120 118 110 98 89
322 77 122 169 140 163 224 261 57 309 142 140 97 131 136 144 154 148 149 158 164 165 164 163 159 157 149 136 124 121 121 114 116 112 116 118 118 112 105 94 95 100 108 118 123 127 120 106 101
60 94 172 182 137 167 190 213 335 163 150 69 78 91 127 140 150 147 161 173 171 173 169 171 165 159 153 146 145 143 149 135 132 132 131 121 114 110 103 97 93 96 102 112 129 135 138 126 165
313 121 148 155 160 150 155 84 7 297 185 184 157 139 148 148 153 159 174 184 185 180 176 178 173 167 162 155 155 154 152 153 144 142 135 126 118 113 105 101 96 94 91 96 107 112 137 172 250
64 55 149 135 127 111 106 151 355 276 314 142 158 149 150 163 169 173 183 186 189 186 184 180 178 172 169 170 162 155 146 146 141 140 145 135 108 115 108 94 86 82 94 104 113 143 260 263 274
78 44 92 112 139 134 187 126 260 289 139 130 135 149 160 166 178 181 185 191 189 191 194 189 181 178 173 175 166 156 149 152 161 178 183 172 129 122 109 109 34 358 340 294 296 184 317 356 287
105 94 109 112 151 128 139 245 347 70 136 138 148 161 165 180 179 184 186 191 195 197 196 194 188 183 179 170 167 165 165 177 205 198 178 200 179 155 291 266 313 356 66 187 144 123 44 42 23
142 102 109 123 150 135 133 253 234 43 157 151 160 168 176 195 189 198 194 195 200 202 199 195 192 189 187 174 174 179 180 176 160 143 169 206 185 102 85 115 128 85 91 96 117 110 7 18 43
143 125 123 173 152 151 174 271 211 154 163 158 171 179 185 203 209 206 204 204 206 202 202 199 196 194 190 180 185 189 189 187 206 206 204 179 176 157 100 157 130 81 52 15 109 271 321 138 142
8 310 139 176 197 135 195 263 151 166 195 176 183 182 183 199 215 214 208 209 209 205 201 203 198 196 197 192 192 191 193 209 220 218 195 177 175 171 147 179 165 48 348 331 273 266 250 148 177
210 250 164 179 193 167 194 264 134 192 188 177 181 182 188 202 217 210 204 207 209 213 207 207 206 199 201 195 197 197 204 210 204 217 219 206 195 193 184 202 174 214 273 313 344 10 106 150 162
167 214 267 135 167 134 210 275 215 179 191 184 177 192 188 208 221 203 196 208 212 215 211 212 213 212 203 200 200 205 208 208 210 224 217 221 211 202 210 228 235 240 245 258 231 87 117 118 151
218 302 292 81 145 145 173 231 225 179 205 203 176 193 196 182 182 185 186 190 207 213 214 212 214 216 206 201 197 208 200 208 229 227 215 220 217 213 220 229 239 230 231 239 228 186 129 91 161
195 198 219 170 143 249 117 289 188 224 248 193 206 204 195 187 186 182 178 183 199 209 209 215 213 210 215 212 212 191 194 230 235 217 214 213 210 210 224 227 242 235 222 229 226 221 193 173 86
261 206 218 136 120 172 135 268 24 251 225 221 213 200 186 181 187 192 186 183 194 209 210 209 216 218 217 214 204 195 203 203 204 205 212 216 219 222 227 231 229 251 223 217 207 205 209 199 180
228 140 98 105 113 91 99 69 261 10 225 260 251 220 198 187 189 189 192 197 202 199 209 213 219 213 208 205 202 199 208 212 212 214 219 223 229 233 231 230 233 250 231 213 206 196 198 187 171
138 75 51 62 83 32 242 135 278 268 241 273 270 243 213 202 199 205 207 192 199 199 207 212 218 216 212 212 208 205 208 209 207 210 213 217 234 226 229 235 229 234 226 244 217 227 205 206 206
82 69 9 8 18 222 332 76 238 239 237 256 272 273 226 209 202 194 196 186 191 196 201 206 214 216 212 213 213 212 212 210 208 210 216 219 227 231 227 232 233 235 238 233 231 237 229 227 224
158 146 150 185 193 244 43 226 274 211 266 287 288 291 217 201 206 196 199 200 197 197 200 203 211 220 216 215 216 217 220 218 221 221 228 233 230 234 233 232 238 240 242 234 231 232 244 253 248
175 153 162 101 359 67 249 273 292 206 283 294 307 329 26 226 240 199 196 195 199 198 200 207 208 216 219 220 220 221 223 225 224 228 232 229 241 240 240 238 234 244 238 245 242 248 252 250 258
114 144 88 22 133 224 289 272 238 211 243 291 314 311 324 291 242 246 211 195 210 210 204 204 210 212 217 219 222 223 225 227 230 229 226 223 240 242 242 234 234 241 243 243 246 248 252 252 261
87 66 53 106 106 155 201 264 217 194 192 230 280 306 292 274 273 275 246 215 208 203 196 206 206 214 219 223 223 225 226 229 231 229 224 228 237 228 228 223 237 244 244 239 240 244 243 247 254
134 144 136 119 216 102 146 272 249 184 190 211 254 279 295 275 267 252 248 231 200 201 193 202 205 210 224 227 225 225 230 227 228 227 230 233 234 233 230 232 243 245 255 249 238 244 246 246 253
Height
767 768 769 769 790 792 799 792 778 789 789 782 780 787 794 797 801 818 803 804 805 809 812 815 817 818 819 820 820 820 822 823 825 825 825 826 827 829 832 833 833 835 836 838 839 839 841 840 842
767 769 770 774 801 814 806 783 787 784 782 781 782 786 794 804 798 801 804 806 808 811 814 816 819 821 821 822 822 824 825 826 824 827 827 828 830 832 833 835 836 837 839 840 841 842 843 844 844
768 769 774 785 800 814 802 785 784 784 779 780 789 787 794 805 803 803 804 807 810 813 815 816 819 823 823 823 825 827 827 828 828 829 828 830 833 834 835 836 839 839 841 843 845 846 846 847 847
768 770 775 793 802 799 792 784 783 787 779 778 784 798 796 800 803 803 805 809 811 815 816 818 820 822 823 825 828 829 827 831 830 830 831 832 834 835 837 840 841 842 844 846 847 848 848 848 849
768 775 796 803 804 798 788 781 781 786 785 785 784 801 804 804 803 805 807 811 813 816 818 820 823 825 826 828 829 830 831 831 831 833 834 835 837 837 840 842 843 844 847 848 850 852 851 851 850
775 776 804 814 807 799 790 788 786 786 788 787 792 799 809 807 807 810 811 814 816 818 821 822 826 827 828 830 830 830 830 832 833 834 836 837 839 841 843 844 846 847 849 851 852 853 853 852 853
779 789 804 805 809 804 799 789 792 789 792 791 790 808 809 809 810 812 814 817 818 821 823 825 828 830 831 833 833 833 833 835 837 838 839 840 841 843 845 846 849 850 851 854 854 854 854 855 856
776 785 802 804 805 808 798 794 787 788 792 785 789 810 813 808 810 813 817 819 821 823 825 827 830 831 833 834 835 836 838 839 840 842 842 842 844 845 847 849 851 852 852 854 855 856 856 857 858
773 798 808 804 800 803 797 799 783 780 787 786 790 796 799 805 810 813 818 822 823 825 827 829 831 832 835 836 838 839 841 842 844 844 845 845 846 847 849 852 852 853 853 855 856 857 858 858 859
782 798 797 787 792 798 795 799 793 791 791 796 798 799 803 807 810 814 818 822 824 825 828 830 832 833 835 838 840 841 842 843 845 847 847 847 848 850 851 853 853 854 855 857 857 859 859 859 859
782 793 784 785 787 787 794 797 796 796 797 794 798 802 806 809 813 816 819 822 824 825 828 830 832 834 837 838 840 841 843 845 847 849 849 850 851 851 853 854 855 856 858 859 859 860 860 860 860
786 780 780 784 786 792 798 796 798 798 788 785 791 796 804 810 812 815 819 821 824 827 829 830 833 835 837 839 841 843 846 847 849 850 852 852 853 854 855 856 857 858 859 859 859 859 859 859 859
784 781 781 783 787 792 795 797 800 797 786 788 797 801 807 811 814 815 818 821 824 827 830 831 833 835 837 840 843 845 847 849 851 853 854 854 855 856 857 858 859 859 859 858 859 859 859 859 858
780 782 787 788 791 792 798 799 798 790 787 792 798 803 807 811 812 816 817 820 823 826 829 831 833 836 838 841 844 846 848 850 851 852 854 856 857 858 859 859 859 859 859 857 858 859 859 859 859
780 791 789 791 793 797 794 805 800 790 788 794 801 804 807 810 813 813 815 819 821 825 828 830 834 836 839 842 845 847 848 850 852 853 855 857 858 859 859 860 860 860 859 859 859 859 860 860 860
784 788 805 794 791 793 798 811 795 792 793 798 802 804 808 810 810 813 817 819 823 825 828 831 834 837 839 842 844 846 849 851 853 855 856 856 858 859 860 860 861 860 860 860 860 860 860 861 862
792 803 805 803 792 798 801 803 795 794 795 798 801 804 807 810 809 811 814 817 820 824 827 831 834 837 840 843 845 847 850 852 853 855 856 857 859 860 861 861 861 861 861 861 860 860 861 862 862
808 804 797 802 800 798 805 804 796 796 792 797 798 803 805 806 804 807 812 816 818 822 825 830 833 836 840 842 844 847 849 851 854 855 856 858 860 861 861 861 861 862 862 862 860 860 861 862 862
786 792 797 794 790 799 805 803 797 797 797 799 800 800 803 803 802 806 811 814 817 821 824 827 832 835 839 840 842 845 847 850 853 854 855 857 859 860 861 861 862 862 862 861 861 861 861 861 862
787 793 796 790 790 796 802 803 795 796 796 794 796 798 797 803 804 806 808 812 814 817 821 825 829 833 836 839 840 843 845 849 851 853 854 856 859 860 860 860 861 861 861 861 862 861 861 862 862
793 796 792 791 795 794 796 805 801 795 794 793 792 791 792 796 801 803 807 808 812 815 817 821 826 831 834 837 840 842 844 847 848 851 853 855 858 859 859 860 861 860 860 861 862 862 862 862 862
793 776 776 788 802 815 794 830 805 804 802 796 791 790 791 793 800 800 803 805 808 811 815 819 824 828 832 836 838 839 842 844 846 849 852 854 856 857 858 859 860 859 859 860 861 862 862 862 862
783 767 777 785 801 805 808 824 808 804 806 801 793 787 786 789 789 793 797 800 802 809 812 817 821 826 830 833 835 838 840 843 845 848 850 853 855 856 857 858 859 859 859 860 861 862 862 862 861
763 776 791 803 812 830 810 817 820 813 804 799 789 785 785 786 787 789 792 797 801 806 810 814 818 823 827 831 833 835 838 841 843 846 849 851 853 854 856 857 858 858 859 859 861 862 863 862 861
776 796 836 832 838 837 815 819 817 800 796 793 791 787 780 780 784 786 789 793 797 801 805 809 814 819 823 828 830 833 836 839 841 844 846 848 850 851 853 855 857 857 858 859 860 861 862 862 861
780 792 829 836 846 831 814 824 806 793 791 789 786 784 776 777 778 779 783 789 792 797 801 805 809 814 818 823 826 831 834 836 838 841 844 845 847 849 851 853 855 856 857 857 858 860 860 861 861
785 799 791 830 837 834 829 810 796 793 794 792 788 783 783 781 779 780 782 784 787 792 796 799 804 809 813 818 822 826 830 832 834 838 841 843 844 846 849 850 852 853 855 855 857 858 859 860 860
767 782 806 821 834 832 831 820 815 805 798 792 790 787 786 783 779 779 779 782 783 787 791 796 799 804 808 813 817 821 825 828 832 835 837 839 841 842 844 846 848 850 852 853 855 855 857 857 858
782 793 811 818 830 841 840 827 794 793 791 792 790 787 785 784 781 778 777 778 781 783 787 790 795 800 803 807 811 816 820 824 828 831 833 835 837 839 840 843 845 846 848 850 851 853 854 854 855
769 785 798 817 820 837 837 823 786 788 788 786 786 784 782 780 777 774 773 773 776 780 781 784 789 794 799 804 807 810 815 819 823 826 829 832 834 836 837 838 840 842 844 846 847 848 849 850 851